Location: La Tine
(46.4708°N, 7.0525°E)
Time: 00:17:02
(UTC+00:00)

Cosmos 1833 Rocket - Pass Details

Date: 22 January 2021
Orbit: 833 x 839 km, 71.0° (Epoch: 03 March)

Event Time Altitude Azimuth Distance (km) Brightness Sun altitude
Rises 20:42:45 0° 319° (NW) 3,390 6.5 -44.4°
Reaches altitude 10° 20:46:00 10° 300° (WNW) 2,451 5.7 -44.9°
Enters shadow 20:47:09 13° 290° (WNW) 2,214 5.4 -45.1°
